Weather History for KLBT - September, 2012

Change the Weather History Date:

Saturday, September 15, 2012

  Actual Average Record
Temperature  
Mean Temperature 75 °F 73 °F  
Max Temperature 88 °F 84 °F 95 °F (2010)
Min Temperature 61 °F 63 °F 57 °F (2000)
Degree Days  
Heating Degree Days 0 0  
Month to date heating degree days 0 0  
Since 1 July heating degree days 0 0  
Cooling Degree Days 10 8  
Month to date cooling degree days 181 151  
Year to date cooling degree days 1905 1723  
Growing Degree Days 23 (Base 50)    
Moisture  
Dew Point 64 °F    
Average Humidity 71    
Maximum Humidity 100    
Minimum Humidity 42    
Precipitation  
Precipitation 0.00 in 0.15 in 7.14 in (1999)
Month to date precipitation 0.60 2.49  
Year to date precipitation 36.74 32.88  
Sea Level Pressure  
Sea Level Pressure 30.13 in    
Wind  
Wind Speed 2 mph (ENE)    
Max Wind Speed 9 mph    
Max Gust Speed 15 mph    
Visibility 6 miles    
Events Fog    
T = Trace of Precipitation, MM = Missing Value Source: NWS Daily Summary

Daily Weather History Graph

Daily Weather History Graph

Search for Another Location

Airport or City:

Trip Planner

Search our weather history database for the weather conditions in past years. The results will help you decide how hot, cold, wet, or windy it might be!

Date:

Astronomy

Sep. 15, 2012 Rise Set
Actual Time 6:59 AM EDT 7:22 PM EDT
Civil Twilight 6:34 AM EDT 7:47 PM EDT
Nautical Twilight 6:04 AM EDT 8:17 PM EDT
Astronomical Twilight 5:34 AM EDT 8:47 PM EDT
Moon 6:27 AM EDT (9/15) 6:54 PM EDT (9/15)
Length of Visible Light 13h 13m
Length of Day
12h 22m
Waning Crescent, 0% of the Moon is Illuminated
Sep 15
Waning Crescent
Sep 15
New
Sep 22
First Quarter
Sep 29
Full
Oct 8
Last Quarter

Hourly Weather History & Observations

Time (EDT) Temp. Heat Index Dew Point Humidity Pressure Visibility Wind Dir Wind Speed Gust Speed Precip Events Conditions
12:54 AM 66.0 °F - 64.9 °F 96% 30.14 in 10.0 mi Calm Calm - N/A   Clear
1:54 AM 64.9 °F - 64.9 °F 100% 30.14 in 7.0 mi Calm Calm - N/A   Clear
2:54 AM 64.0 °F - 63.0 °F 96% 30.13 in 10.0 mi Calm Calm - N/A   Clear
3:19 AM 62.6 °F - 62.6 °F 100% 30.12 in 1.8 mi Calm Calm - N/A   Clear
3:24 AM 62.6 °F - 62.6 °F 100% 30.12 in 3.0 mi Calm Calm - N/A   Clear
3:54 AM 63.0 °F - 62.1 °F 97% 30.12 in 10.0 mi Calm Calm - N/A   Clear
4:54 AM 63.0 °F - 63.0 °F 100% 30.12 in 5.0 mi Calm Calm - N/A   Clear
5:10 AM 62.6 °F - 62.6 °F 100% 30.12 in 1.5 mi Calm Calm - N/A   Clear
5:15 AM 62.6 °F - 62.6 °F 100% 30.12 in 0.8 mi Calm Calm - N/A   Clear
5:25 AM 62.6 °F - 62.6 °F 100% 30.12 in 1.2 mi Calm Calm - N/A   Clear
5:29 AM 62.6 °F - 60.8 °F 94% 30.13 in 0.8 mi Calm Calm - N/A   Clear
5:41 AM 62.6 °F - 62.6 °F 100% 30.13 in 1.0 mi Calm Calm - N/A   Mist
5:54 AM 62.1 °F - 62.1 °F 100% 30.13 in 1.0 mi Calm Calm - N/A   Mostly Cloudy
5:58 AM 62.6 °F - 62.6 °F 100% 30.13 in 1.8 mi Calm Calm - N/A   Mostly Cloudy
6:01 AM 62.6 °F - 60.8 °F 94% 30.14 in 3.0 mi Calm Calm - N/A   Overcast
6:09 AM 62.6 °F - 60.8 °F 94% 30.14 in 1.5 mi Calm Calm - N/A   Overcast
6:15 AM 60.8 °F - 60.8 °F 100% 30.14 in 0.8 mi Calm Calm - N/A   Overcast
6:54 AM 62.1 °F - 62.1 °F 100% 30.14 in 0.5 mi Calm Calm - N/A Fog Fog
7:54 AM 64.0 °F - 64.0 °F 100% 30.15 in 0.2 mi Calm Calm - 0.01 in Fog Fog
8:32 AM 66.2 °F - 66.2 °F 100% 30.16 in 1.2 mi Calm Calm - N/A   Overcast
8:36 AM 66.2 °F - 66.2 °F 100% 30.16 in 2.0 mi NNE 3.5 mph - N/A   Overcast
8:46 AM 66.2 °F - 66.2 °F 100% 30.16 in 5.0 mi North 3.5 mph - N/A   Overcast
8:54 AM 66.9 °F - 66.9 °F 100% 30.16 in 10.0 mi NNE 3.5 mph - N/A   Mostly Cloudy
9:13 AM 69.8 °F - 68.0 °F 94% 30.17 in 10.0 mi Calm Calm - N/A   Partly Cloudy
9:54 AM 75.9 °F - 69.1 °F 79% 30.17 in 10.0 mi NNE 3.5 mph - N/A   Clear
10:54 AM 81.0 °F 82.7 °F 64.9 °F 58% 30.17 in 10.0 mi Variable 3.5 mph - N/A   Clear
11:54 AM 82.9 °F 84.0 °F 63.0 °F 51% 30.15 in 10.0 mi NW 5.8 mph - N/A   Clear
12:54 PM 84.0 °F 84.5 °F 62.1 °F 47% 30.14 in 10.0 mi Calm Calm - N/A   Clear
1:54 PM 86.0 °F 86.3 °F 62.1 °F 44% 30.12 in 10.0 mi Calm Calm - N/A   Partly Cloudy
2:54 PM 86.0 °F 86.1 °F 61.0 °F 43% 30.09 in 10.0 mi ESE 4.6 mph - N/A   Partly Cloudy
3:54 PM 84.9 °F 84.8 °F 60.1 °F 43% 30.08 in 10.0 mi Variable 3.5 mph - N/A   Clear
4:54 PM 86.0 °F 86.1 °F 61.0 °F 43% 30.07 in 10.0 mi ESE 5.8 mph - N/A   Partly Cloudy
5:54 PM 82.9 °F 83.7 °F 62.1 °F 49% 30.07 in 10.0 mi Calm Calm - N/A   Partly Cloudy
6:54 PM 79.0 °F - 69.1 °F 72% 30.08 in 10.0 mi Calm Calm - N/A   Overcast
7:54 PM 77.0 °F - 69.1 °F 76% 30.09 in 10.0 mi Calm Calm - N/A   Overcast
8:54 PM 78.1 °F - 66.0 °F 66% 30.10 in 10.0 mi ENE 6.9 mph - N/A   Overcast
9:54 PM 75.0 °F - 66.9 °F 76% 30.11 in 10.0 mi East 5.8 mph - N/A   Overcast
10:54 PM 73.9 °F - 66.9 °F 79% 30.12 in 10.0 mi SE 8.1 mph - N/A   Overcast
11:54 PM 73.0 °F - 68.0 °F 84% 30.12 in 10.0 mi Calm Calm - N/A   Overcast